Location: Bédeille
(43.0872°N, 1.1041°E)
Time: 11:58:36
(UTC+00:00)

Cosmos 1606 Rocket - Pass Details

Date: 03 February 2023
Orbit: 602 x 630 km, 82.5° (Epoch: 19 March)

Event Time Altitude Azimuth Distance (km) Brightness Sun altitude
Rises 18:30:15 0° 349° (NNW) 2,864 7.0 -14.9°
Reaches altitude 10° 18:32:28 10° 347° (NNW) 1,957 6.2 -15.3°
Maximum altitude 18:36:46 68° 264° (W) 654 3.9 -16.1°
Drops below altitude 10° 18:41:02 10° 182° (S) 1,948 6.2 -16.8°
Sets 18:43:15 0° 180° (S) 2,851 7.1 -17.2°
